Group_ship,Cruise,JD_GMT,Date_DDMMYYYY,TIME_HH:MM:SS,Lat_dec_degree,Long_dec_degree,xCO2eq_ppm,xCO2a_ppm,Pres_Equi_hPa,Pres_sealevel_hPa,EqTemp_C,SST(TSG)_C,Sal(TSG)_Permil,Water_flow_l/min,Gasflow_IR_ml/min,Temp_IR_C,Pres_IR_hPa,Ship_heading_true_degree,Ship_speed_knot,Wind_dir_rel_degree,Wind_speed_rel_m/s,fCO2W@SST_uatm,Qcflag_water,fCO2a_uatm,Qcflag_air,dfCO2_uatm,Fluoro_ug/l,Wind_speed_true_m/s,Wind_dir_true_degree,Air_temp_C,Oxygen
AOML_Explorer,Ex0742NE,286.098,13102007,2:21:40,40.405,-73.436,458.97,-9.00,1010.16,1006.50,19.25,19.12,32.014,1.564,101.511,31.356,1010.164,-9.000,-9.000,277.000,7.721,443.85,2,-9.00,9,-9.00,0.32,11.91,314.80,11.93,240.08
AOML_Explorer,Ex0742NE,286.100,13102007,2:24:13,40.405,-73.436,456.68,-9.00,1010.28,1007.20,19.27,19.17,32.024,1.582,101.152,31.361,1010.276,-9.000,-9.000,257.000,8.750,442.26,2,-9.00,9,-9.00,0.30,14.68,309.77,11.91,241.89
AOML_Explorer,Ex0742NE,286.102,13102007,2:26:46,40.405,-73.436,452.70,-9.00,1010.25,1007.20,19.30,19.21,32.049,1.566,101.308,31.364,1010.248,-9.000,-9.000,267.000,8.750,438.32,2,-9.00,9,-9.00,0.32,13.69,314.16,11.81,243.74
AOML_Explorer,Ex0742NE,286.104,13102007,2:29:19,40.405,-73.436,447.89,-9.00,1010.15,1006.90,19.35,19.24,32.090,1.610,101.280,31.367,1010.151,-9.000,-9.000,249.000,10.294,433.33,2,-9.00,9,-9.00,0.33,16.83,309.12,11.89,245.45
AOML_Explorer,Ex0742NE,286.105,13102007,2:31:52,40.405,-73.436,443.07,-9.00,1010.45,1007.20,19.39,19.30,32.132,1.596,101.433,31.370,1010.454,-9.000,-9.000,267.000,7.206,429.03,2,-9.00,9,-9.00,0.32,12.72,309.56,11.64,247.02
AOML_Explorer,Ex0742NE,286.107,13102007,2:34:25,40.405,-73.436,438.01,-9.00,1010.34,1007.00,19.42,19.33,32.192,1.656,101.209,31.370,1010.340,-9.000,-9.000,265.000,8.750,423.99,2,-9.00,9,-9.00,0.33,14.00,313.02,11.67,248.28
AOML_Explorer,Ex0742NE,286.109,13102007,2:36:58,40.405,-73.436,432.70,-9.00,1010.24,1006.20,19.47,19.35,32.233,1.654,101.343,31.373,1010.244,-9.000,-9.000,271.000,11.323,418.49,2,-9.00,9,-9.00,0.31,15.20,323.43,11.78,249.24
AOML_Explorer,Ex0742NE,286.111,13102007,2:39:31,40.405,-73.436,427.64,-9.00,1010.31,1007.20,19.49,19.39,32.276,1.652,98.035,31.374,1010.308,-9.000,-9.000,284.000,5.147,413.92,2,-9.00,9,-9.00,0.29,10.20,304.28,11.66,249.94
AOML_Explorer,Ex0742NE,286.113,13102007,2:42:04,40.405,-73.436,423.33,-9.00,1010.47,1007.60,19.52,19.44,32.365,1.658,101.242,31.375,1010.474,-9.000,-9.000,261.000,7.721,410.12,2,-9.00,9,-9.00,0.26,13.66,308.43,11.63,251.13
AOML_Explorer,Ex0742NE,286.114,13102007,2:44:37,40.405,-73.436,418.71,-9.00,1010.31,1007.00,19.55,19.39,32.504,1.636,101.215,31.373,1010.310,-9.000,-9.000,275.000,8.750,404.09,2,-9.00,9,-9.00,0.25,12.84,317.06,11.82,251.24
AOML_Explorer,Ex0742NE,286.116,13102007,2:47:10,40.405,-73.436,413.83,-9.00,1010.16,1006.60,19.60,19.20,32.515,1.623,101.234,31.375,1010.160,-9.000,-9.000,275.000,7.721,395.45,2,-9.00,9,-9.00,0.22,12.22,313.92,11.65,250.63
AOML_Explorer,Ex0742NE,286.118,13102007,2:49:43,40.405,-73.436,410.42,-9.00,1010.29,1006.80,19.53,19.07,32.491,1.639,101.303,31.372,1010.293,-9.000,-9.000,267.000,8.235,391.48,2,-9.00,9,-9.00,0.20,13.45,312.28,11.79,250.75
AOML_Explorer,Ex0742NE,286.120,13102007,2:52:16,40.405,-73.436,410.51,-9.00,1010.39,1007.50,19.38,18.93,32.432,1.627,101.384,31.376,1010.394,-9.000,-9.000,276.000,7.721,391.58,2,-9.00,9,-9.00,0.17,12.12,314.03,11.61,251.22
AOML_Explorer,Ex0742NE,286.121,13102007,2:54:49,40.405,-73.436,411.51,-9.00,1010.35,1006.80,19.27,18.81,32.339,1.650,101.548,31.372,1010.352,-9.000,-9.000,264.000,8.235,392.57,2,-9.00,9,-9.00,0.17,13.79,308.11,11.65,251.04
AOML_Explorer,Ex0742NE,286.123,13102007,2:57:22,40.405,-73.436,413.95,-9.00,1010.45,1007.20,19.14,18.78,32.328,1.654,101.689,31.375,1010.448,-9.000,-9.000,276.000,8.750,396.72,2,-9.00,9,-9.00,0.15,12.75,312.35,11.5,250.92
AOML_Explorer,Ex0742NE,286.125,13102007,2:59:55,40.405,-73.436,417.64,-9.00,1010.41,1006.90,19.06,18.78,32.332,1.701,101.629,31.375,1010.412,-9.000,-9.000,283.000,10.809,401.61,2,-9.00,9,-9.00,0.15,13.20,322.67,11.61,250.83
AOML_Explorer,Ex0742NE,286.140,13102007,3:21:40,40.405,-73.436,426.84,-9.00,1010.36,1006.80,18.68,18.51,32.416,1.673,101.265,31.423,1010.362,-9.000,-9.000,282.000,8.750,412.33,2,-9.00,9,-9.00,0.19,12.04,320.01,11.75,250.85
AOML_Explorer,Ex0742NE,286.142,13102007,3:24:13,40.405,-73.436,423.71,-9.00,1010.33,1006.90,18.72,18.51,32.449,1.712,101.387,31.423,1010.335,-9.000,-9.000,289.000,10.294,408.66,2,-9.00,9,-9.00,0.19,12.08,327.89,11.64,250.63
AOML_Explorer,Ex0742NE,286.144,13102007,3:26:46,40.405,-73.436,420.97,-9.00,1010.39,1007.30,18.75,18.50,32.439,1.668,101.080,31.419,1010.393,-9.000,-9.000,279.000,8.235,405.35,2,-9.00,9,-9.00,0.19,12.10,312.97,11.61,251.09
AOML_Explorer,Ex0742NE,286.145,13102007,3:29:19,40.405,-73.436,419.04,-9.00,1010.31,1007.10,18.75,18.55,32.433,1.707,103.158,31.416,1010.312,-9.000,-9.000,289.000,8.235,404.22,2,-9.00,9,-9.00,0.18,10.86,314.46,11.63,252.28
AOML_Explorer,Ex0742NE,286.147,13102007,3:31:52,40.405,-73.436,418.25,-9.00,1010.32,1006.90,18.75,18.61,32.448,1.668,101.319,31.409,1010.324,-9.000,-9.000,278.000,9.779,404.62,2,-9.00,9,-9.00,0.16,13.17,316.33,11.79,253.31
AOML_Explorer,Ex0742NE,286.149,13102007,3:34:25,40.405,-73.436,416.25,-9.00,1010.37,1007.10,18.79,18.58,32.426,1.680,101.005,31.406,1010.371,-9.000,-9.000,285.000,8.750,401.46,2,-9.00,9,-9.00,0.16,11.67,315.36,11.75,253.38
AOML_Explorer,Ex0742NE,286.151,13102007,3:36:58,40.405,-73.436,412.88,-9.00,1010.31,1007.00,18.83,18.62,32.405,1.694,101.760,31.394,1010.314,-9.000,-9.000,290.000,9.265,398.14,2,-9.00,9,-9.00,0.17,11.35,320.17,11.69,254.11
AOML_Explorer,Ex0742NE,286.152,13102007,3:39:31,40.405,-73.436,411.69,-9.00,1010.28,1006.60,18.82,18.63,32.404,1.659,101.159,31.385,1010.280,-9.000,-9.000,282.000,10.809,397.32,2,-9.00,9,-9.00,0.15,13.45,321.19,11.78,254.83
AOML_Explorer,Ex0742NE,286.154,13102007,3:42:04,40.405,-73.436,410.43,-9.00,1010.26,1007.00,18.85,18.65,32.407,1.699,101.521,31.375,1010.265,-9.000,-9.000,294.000,10.294,395.91,2,-9.00,9,-9.00,0.16,11.35,326.22,11.61,255.40
AOML_Explorer,Ex0742NE,286.156,13102007,3:44:37,40.405,-73.436,408.81,-9.00,1010.16,1006.20,18.86,18.70,32.447,1.715,101.448,31.361,1010.157,-9.000,-9.000,294.000,12.868,394.97,2,-9.00,9,-9.00,0.18,13.03,335.33,11.83,255.39
AOML_Explorer,Ex0742NE,286.158,13102007,3:47:10,40.405,-73.436,407.41,-9.00,1010.18,1006.60,18.88,18.74,32.502,1.689,102.283,31.355,1010.182,-9.000,-9.000,298.000,11.323,393.86,2,-9.00,9,-9.00,0.19,11.34,332.67,11.78,255.31
AOML_Explorer,Ex0742NE,286.160,13102007,3:49:43,40.405,-73.436,405.97,-9.00,1010.15,1006.20,18.92,18.81,32.573,1.690,101.503,31.345,1010.154,-9.000,-9.000,286.000,11.323,393.04,2,-9.00,9,-9.00,0.18,13.24,325.41,11.86,255.16
AOML_Explorer,Ex0742NE,286.161,13102007,3:52:16,40.405,-73.436,404.25,-9.00,1010.23,1007.20,18.95,18.89,32.659,1.665,101.517,31.333,1010.228,-9.000,-9.000,283.000,8.235,392.06,2,-9.00,9,-9.00,0.18,11.66,312.89,11.79,255.03
AOML_Explorer,Ex0742NE,286.163,13102007,3:54:49,40.405,-73.436,402.37,-9.00,1010.21,1006.70,19.02,18.83,32.649,1.713,101.284,31.327,1010.213,-9.000,-9.000,300.000,10.294,388.16,2,-9.00,9,-9.00,0.18,10.43,329.30,11.83,255.24
AOML_Explorer,Ex0742NE,286.165,13102007,3:57:22,40.405,-73.436,400.09,-9.00,1010.19,1005.70,19.07,18.76,32.646,1.678,101.505,31.313,1010.191,-9.000,-9.000,280.000,9.779,384.11,2,-9.00,9,-9.00,0.18,13.02,317.12,11.97,255.60
AOML_Explorer,Ex0742NE,286.167,13102007,3:59:55,40.405,-73.436,398.89,-9.00,1010.20,1006.50,19.03,18.67,32.610,1.717,101.463,31.300,1010.195,-9.000,-9.000,286.000,11.323,382.06,2,-9.00,9,-9.00,0.18,13.24,324.99,11.75,256.61
AOML_Explorer,Ex0742NE,286.182,13102007,4:21:40,40.405,-73.436,399.60,-9.00,1010.34,1006.60,18.74,18.38,32.507,1.668,102.610,31.284,1010.339,-9.000,-9.000,295.000,10.809,383.10,2,-9.00,9,-9.00,0.21,11.51,327.52,11.85,255.07
AOML_Explorer,Ex0742NE,286.183,13102007,4:24:13,40.405,-73.436,402.48,-9.00,1010.31,1006.90,18.68,18.46,32.521,1.690,101.411,31.278,1010.314,-9.000,-9.000,298.000,11.323,387.98,2,-9.00,9,-9.00,0.22,11.38,331.10,11.84,254.58
AOML_Explorer,Ex0742NE,286.185,13102007,4:26:46,40.384,-72.488,405.40,-9.00,1010.47,1006.90,18.66,18.64,32.582,1.637,101.508,31.267,1010.469,88.200,19.600,295.000,9.779,394.18,2,-9.00,9,-9.00,0.20,10.88,323.47,11.88,255.01
AOML_Explorer,Ex0742NE,286.187,13102007,4:29:19,40.385,-72.470,406.00,-9.00,1010.32,1007.00,18.72,18.84,32.677,1.664,101.470,31.254,1010.325,87.600,19.600,295.000,9.779,396.86,2,-9.00,9,-9.00,0.18,10.88,322.91,11.81,254.23
AOML_Explorer,Ex0742NE,286.189,13102007,4:31:52,40.385,-72.452,404.22,-9.00,1010.25,1006.80,18.87,18.95,32.782,1.667,101.743,31.246,1010.247,88.200,19.700,282.000,9.779,394.52,2,-9.00,9,-9.00,0.17,12.75,317.09,11.97,253.80
AOML_Explorer,Ex0742NE,286.191,13102007,4:34:25,40.386,-72.433,401.93,-9.00,1010.38,1007.00,19.02,19.14,32.853,1.670,101.434,31.233,1010.383,88.100,19.700,299.000,10.294,392.78,2,-9.00,9,-9.00,0.17,10.57,327.62,11.84,253.12
AOML_Explorer,Ex0742NE,286.192,13102007,4:36:58,40.386,-72.415,399.00,-9.00,1010.33,1007.30,19.14,19.28,32.977,1.667,101.641,31.221,1010.325,88.000,19.600,288.000,8.235,390.15,2,-9.00,9,-9.00,0.18,11.06,313.31,11.79,253.03
AOML_Explorer,Ex0742NE,286.194,13102007,4:39:31,40.387,-72.397,395.07,-9.00,1010.29,1006.90,19.30,19.27,32.990,1.665,101.581,31.209,1010.288,88.600,19.500,294.000,10.294,383.47,2,-9.00,9,-9.00,0.20,11.39,325.21,11.87,253.30
AOML_Explorer,Ex0742NE,286.196,13102007,4:42:04,40.387,-72.379,391.11,-9.00,1010.33,1007.00,19.41,19.13,32.988,1.625,101.140,31.193,1010.330,88.500,19.600,291.000,9.779,375.83,2,-9.00,9,-9.00,0.21,11.49,321.62,11.83,254.25
AOML_Explorer,Ex0742NE,286.198,13102007,4:44:37,40.387,-72.361,388.89,-9.00,1010.38,1006.90,19.41,18.99,32.895,1.648,98.669,31.184,1010.379,88.200,19.600,295.000,10.809,371.57,2,-9.00,9,-9.00,0.21,11.52,327.85,11.86,255.00
AOML_Explorer,Ex0742NE,286.199,13102007,4:47:10,40.388,-72.342,388.32,-9.00,1010.42,1007.30,19.30,18.95,32.846,1.673,101.473,31.176,1010.417,88.500,19.600,294.000,7.721,372.02,2,-9.00,9,-9.00,0.22,10.10,313.16,11.8,255.17
AOML_Explorer,Ex0742NE,286.201,13102007,4:49:43,40.388,-72.324,389.05,-9.00,1010.51,1007.40,19.19,19.02,32.809,1.642,101.635,31.164,1010.506,88.000,19.600,296.000,9.265,375.59,2,-9.00,9,-9.00,0.23,10.54,321.40,11.95,255.23
AOML_Explorer,Ex0742NE,286.203,13102007,4:52:16,40.389,-72.306,389.41,-9.00,1010.46,1007.20,19.15,19.10,32.826,1.633,101.536,31.155,1010.464,88.800,19.600,291.000,10.294,377.81,2,-9.00,9,-9.00,0.23,11.81,323.87,11.87,254.78
AOML_Explorer,Ex0742NE,286.205,13102007,4:54:49,40.389,-72.288,389.61,-9.00,1010.47,1007.20,19.21,19.14,32.832,1.615,101.527,31.142,1010.469,88.400,19.600,302.000,10.294,377.80,2,-9.00,9,-9.00,0.22,10.16,329.32,11.91,254.77
AOML_Explorer,Ex0742NE,286.207,13102007,4:57:22,40.390,-72.270,389.52,-9.00,1010.34,1007.30,19.27,19.19,32.850,1.644,101.674,31.138,1010.343,87.900,19.600,295.000,10.294,377.44,2,-9.00,9,-9.00,0.22,11.17,325.47,11.8,254.30
AOML_Explorer,Ex0742NE,286.208,13102007,4:59:55,40.390,-72.252,389.26,-9.00,1010.36,1007.30,19.32,19.17,32.853,1.658,101.625,31.122,1010.365,88.300,19.600,300.000,9.779,376.04,2,-9.00,9,-9.00,0.22,10.15,325.64,11.86,254.30
AOML_Explorer,Ex0742NE,286.223,13102007,5:21:40,40.393,-72.098,386.99,-9.00,1010.47,1007.50,19.41,19.21,32.895,1.629,101.780,31.119,1010.472,89.300,19.400,304.000,8.750,373.23,2,-9.00,9,-9.00,0.20,9.17,323.01,11.77,253.89
AOML_Explorer,Ex0742NE,286.225,13102007,5:24:13,40.394,-72.080,387.24,-9.00,1010.39,1007.20,19.40,19.15,32.899,1.666,101.876,31.117,1010.393,88.200,19.200,300.000,11.323,372.57,2,-9.00,9,-9.00,0.20,11.08,333.75,11.85,253.94
AOML_Explorer,Ex0742NE,286.227,13102007,5:26:46,40.394,-72.062,387.49,-9.00,1010.41,1007.50,19.38,19.10,32.886,1.656,101.577,31.111,1010.413,88.800,19.300,289.000,8.235,372.39,2,-9.00,9,-9.00,0.21,10.94,314.74,11.91,254.13
AOML_Explorer,Ex0742NE,286.229,13102007,5:29:19,40.394,-72.044,388.02,-9.00,1010.56,1007.30,19.33,19.04,32.866,1.648,101.690,31.108,1010.558,89.400,19.400,285.000,8.235,372.71,2,-9.00,9,-9.00,0.22,11.42,313.58,12.07,253.99
AOML_Explorer,Ex0742NE,286.230,13102007,5:31:52,40.394,-72.026,388.58,-9.00,1010.49,1007.20,19.28,18.96,32.860,1.655,101.971,31.099,1010.493,87.300,19.300,291.000,9.779,372.94,2,-9.00,9,-9.00,0.21,11.56,320.35,11.86,253.89
AOML_Explorer,Ex0742NE,286.232,13102007,5:34:25,40.396,-72.008,389.41,-9.00,1010.39,1007.20,19.23,18.88,32.798,1.659,101.777,31.093,1010.386,83.400,19.200,299.000,9.779,373.16,2,-9.00,9,-9.00,0.21,10.37,320.71,11.81,254.20
AOML_Explorer,Ex0742NE,286.234,13102007,5:36:58,40.398,-71.991,390.17,-9.00,1010.41,1007.00,19.16,18.89,32.795,1.672,101.830,31.085,1010.406,81.100,19.200,294.000,10.294,375.18,2,-9.00,9,-9.00,0.22,11.35,318.30,11.95,253.93
AOML_Explorer,Ex0742NE,286.236,13102007,5:39:31,40.400,-71.973,391.69,-9.00,1010.46,1007.10,19.10,18.88,32.792,1.672,101.905,31.078,1010.462,78.500,19.100,303.000,12.353,377.55,2,-9.00,9,-9.00,0.22,11.23,329.64,11.83,253.61
AOML_Explorer,Ex0742NE,286.238,13102007,5:42:04,40.403,-71.956,392.83,-9.00,1010.24,1007.10,19.09,18.87,32.787,1.657,101.791,31.073,1010.235,75.500,19.100,287.000,11.838,378.58,2,-9.00,9,-9.00,0.23,13.43,314.05,11.93,253.64
AOML_Explorer,Ex0742NE,286.239,13102007,5:44:37,40.407,-71.939,393.82,-9.00,1010.20,1006.00,19.08,18.86,32.784,1.651,101.488,31.068,1010.198,71.600,19.000,290.000,12.353,379.43,2,-9.00,9,-9.00,0.23,13.37,313.44,11.99,253.52
AOML_Explorer,Ex0742NE,286.241,13102007,5:47:10,40.412,-71.923,394.40,-9.00,1010.29,1006.60,19.08,18.86,32.768,1.663,101.801,31.063,1010.286,64.600,19.000,300.000,12.353,380.02,2,-9.00,9,-9.00,0.23,11.80,313.43,11.87,253.66
AOML_Explorer,Ex0742NE,286.243,13102007,5:49:43,40.419,-71.908,394.81,-9.00,1010.24,1006.70,19.07,18.83,32.763,1.669,101.670,31.057,1010.239,55.200,18.900,299.000,13.382,380.12,2,-9.00,9,-9.00,0.25,12.76,306.60,11.82,253.69
AOML_Explorer,Ex0742NE,286.245,13102007,5:52:16,40.427,-71.895,394.63,-9.00,1010.03,1006.00,19.06,18.80,32.754,1.644,101.358,31.050,1010.029,44.300,18.700,307.000,16.985,379.51,2,-9.00,9,-9.00,0.24,14.24,313.24,11.84,254.26
AOML_Explorer,Ex0742NE,286.246,13102007,5:54:49,40.433,-71.889,394.52,-9.00,1010.08,1006.40,19.04,18.71,32.719,1.606,101.438,31.041,1010.077,-9.000,-9.000,309.000,15.441,378.32,2,-9.00,9,-9.00,0.24,12.66,301.20,11.72,254.48
AOML_Explorer,Ex0742NE,286.248,13102007,5:57:22,40.433,-71.889,394.24,-9.00,1010.01,1006.40,19.02,18.60,32.672,1.552,101.463,31.032,1010.012,-9.000,-9.000,316.000,16.985,376.72,2,-9.00,9,-9.00,0.23,12.71,302.30,11.73,254.75
AOML_Explorer,Ex0742NE,286.250,13102007,5:59:55,40.461,-71.870,394.31,-9.00,1010.06,1006.90,18.94,18.51,32.620,1.617,101.194,31.025,1010.058,15.300,18.400,332.000,18.529,376.70,2,-9.00,9,-9.00,0.25,11.46,319.69,11.89,254.54
AOML_Explorer,Ex0742NE,286.265,13102007,6:21:40,40.570,-71.836,400.75,-9.00,1009.99,1006.10,18.17,17.73,32.566,1.636,101.435,31.025,1009.988,13.800,18.600,324.000,19.044,383.13,2,-9.00,9,-9.00,0.29,13.00,307.86,11.61,257.71
AOML_Explorer,Ex0742NE,286.267,13102007,6:24:13,40.583,-71.832,399.56,-9.00,1010.08,1006.60,18.19,17.46,32.461,1.618,101.640,31.024,1010.083,14.100,18.600,327.000,19.044,377.44,2,-9.00,9,-9.00,0.34,12.53,312.24,11.42,258.23
AOML_Explorer,Ex0742NE,286.269,13102007,6:26:46,40.596,-71.828,399.49,-9.00,1009.88,1006.40,18.04,17.32,32.398,1.619,101.508,31.020,1009.877,13.800,18.500,329.000,19.559,377.49,2,-9.00,9,-9.00,0.35,12.80,315.33,11.46,256.27
AOML_Explorer,Ex0742NE,286.270,13102007,6:29:19,40.608,-71.824,402.27,-9.00,1009.81,1006.00,17.83,17.22,32.347,1.618,101.933,31.016,1009.809,14.600,18.500,326.000,20.588,381.89,2,-9.00,9,-9.00,0.42,14.19,313.69,11.41,255.97
AOML_Explorer,Ex0742NE,286.272,13102007,6:31:52,40.621,-71.820,407.72,-9.00,1010.04,1006.60,17.71,17.08,32.311,1.617,101.418,31.013,1010.039,14.000,18.500,332.000,17.500,387.02,2,-9.00,9,-9.00,0.47,10.49,315.94,11.31,256.94
AOML_Explorer,Ex0742NE,286.274,13102007,6:34:25,40.634,-71.816,412.80,-9.00,1009.87,1006.60,17.60,17.04,32.294,1.620,101.515,31.007,1009.873,14.400,18.600,327.000,19.044,392.74,2,-9.00,9,-9.00,0.47,12.67,311.27,11.35,258.22
AOML_Explorer,Ex0742NE,286.276,13102007,6:36:58,40.647,-71.812,416.90,-9.00,1009.79,1006.10,17.49,17.10,32.284,1.644,101.745,31.004,1009.793,15.100,18.500,323.000,19.559,399.47,2,-9.00,9,-9.00,0.49,13.70,307.90,11.51,259.14
AOML_Explorer,Ex0742NE,286.277,13102007,6:39:31,40.659,-71.808,418.88,-9.00,1009.69,1006.00,17.45,17.34,32.314,1.644,101.766,30.991,1009.693,13.700,18.500,320.000,19.559,406.11,2,-9.00,9,-9.00,0.37,14.09,303.58,11.33,258.90
AOML_Explorer,Ex0742NE,286.279,13102007,6:42:04,40.672,-71.804,418.14,-9.00,1009.66,1006.00,17.50,17.67,32.453,1.626,101.687,30.989,1009.658,14.100,18.400,320.000,17.500,409.97,2,-9.00,9,-9.00,0.29,12.38,299.44,11.26,257.93
AOML_Explorer,Ex0742NE,286.281,13102007,6:44:37,40.685,-71.800,414.30,-9.00,1009.65,1005.80,17.71,17.93,32.542,1.625,101.747,30.983,1009.652,13.200,18.400,319.000,19.559,406.89,2,-9.00,9,-9.00,0.26,14.22,302.88,11.23,256.65
AOML_Explorer,Ex0742NE,286.283,13102007,6:47:10,40.697,-71.796,407.47,-9.00,1009.67,1006.20,17.96,18.03,32.625,1.585,101.728,30.979,1009.670,11.900,18.400,324.000,18.015,397.67,2,-9.00,9,-9.00,0.26,12.15,303.62,11.34,256.28
AOML_Explorer,Ex0742NE,286.285,13102007,6:49:43,40.710,-71.793,402.04,-9.00,1009.63,1006.40,18.19,18.05,32.639,1.627,102.597,30.974,1009.631,11.600,18.400,328.000,18.015,388.99,2,-9.00,9,-9.00,0.26,11.47,309.65,11.21,256.37
AOML_Explorer,Ex0742NE,286.286,13102007,6:52:16,40.723,-71.789,397.81,-9.00,1009.57,1006.40,18.28,18.08,32.645,1.637,101.578,30.969,1009.568,10.100,18.400,321.000,17.500,383.72,2,-9.00,9,-9.00,0.26,12.20,296.97,11.14,256.15
AOML_Explorer,Ex0742NE,286.288,13102007,6:54:49,40.736,-71.787,395.94,-9.00,1009.57,1006.30,18.31,17.98,32.663,1.623,101.595,30.964,1009.569,9.400,18.400,323.000,16.985,379.94,2,-9.00,9,-9.00,0.25,11.31,298.31,11.13,256.94
AOML_Explorer,Ex0742NE,286.290,13102007,6:57:22,40.749,-71.784,395.01,-9.00,1009.54,1006.20,18.33,17.80,32.588,1.626,101.684,30.958,1009.536,9.800,18.500,321.000,16.985,375.90,2,-9.00,9,-9.00,0.27,11.63,295.87,11.18,257.48
AOML_Explorer,Ex0742NE,286.292,13102007,6:59:55,40.762,-71.781,394.96,-9.00,1009.53,1005.90,18.24,17.73,32.525,1.628,101.963,30.951,1009.535,9.500,18.500,319.000,17.500,376.26,2,-9.00,9,-9.00,0.27,12.44,294.09,11.09,257.54
AOML_Explorer,Ex0742NE,286.307,13102007,7:21:40,40.840,-71.763,413.85,-9.00,1009.67,1006.10,17.49,16.77,32.237,1.565,101.923,30.943,1009.674,-9.000,-9.000,321.000,16.470,391.14,2,-9.00,9,-9.00,0.58,11.21,299.19,11.01,256.73
AOML_Explorer,Ex0742NE,286.308,13102007,7:24:13,40.840,-71.763,419.46,-9.00,1009.68,1006.40,17.33,16.80,32.243,1.567,101.473,30.946,1009.681,-9.000,-9.000,325.000,18.015,399.76,2,-9.00,9,-9.00,0.49,11.98,310.01,11.02,254.76
AOML_Explorer,Ex0742NE,286.310,13102007,7:26:46,40.840,-71.763,426.59,-9.00,1009.76,1006.00,17.21,16.81,32.233,1.576,101.600,30.941,1009.763,-9.000,-9.000,326.000,18.015,408.79,2,-9.00,9,-9.00,0.40,11.92,311.28,10.88,252.69
AOML_Explorer,Ex0742NE,286.312,13102007,7:29:19,40.840,-71.763,431.36,-9.00,1009.69,1006.50,17.22,16.88,32.238,1.621,101.518,30.937,1009.693,-9.000,-9.000,326.000,16.985,414.42,2,-9.00,9,-9.00,0.34,11.02,309.27,10.84,250.94
AOML_Explorer,Ex0742NE,286.314,13102007,7:31:52,40.840,-71.763,435.28,-9.00,1009.75,1006.70,17.23,16.90,32.262,1.556,101.636,30.932,1009.751,-9.000,-9.000,320.000,14.926,418.29,2,-9.00,9,-9.00,0.34,10.24,294.58,10.86,249.69
AOML_Explorer,Ex0742NE,286.316,13102007,7:34:25,40.840,-71.763,438.29,-9.00,1009.89,1006.80,17.28,17.01,32.247,1.566,101.607,30.930,1009.891,-9.000,-9.000,328.000,16.470,422.29,2,-9.00,9,-9.00,0.34,10.24,311.12,10.74,247.22
AOML_Explorer,Ex0742NE,286.317,13102007,7:36:58,40.840,-71.763,441.08,-9.00,1009.89,1006.70,17.30,17.11,32.221,1.590,101.754,30.922,1009.889,-9.000,-9.000,325.000,15.441,426.40,2,-9.00,9,-9.00,0.28,9.91,303.78,10.64,245.16
AOML_Explorer,Ex0742NE,286.319,13102007,7:39:31,40.957,-71.725,445.24,-9.00,1009.97,1007.20,17.38,17.18,32.212,1.591,101.417,30.915,1009.969,14.000,13.000,333.000,14.926,430.18,2,-9.00,9,-9.00,0.29,8.28,313.20,10.63,244.09
AOML_Explorer,Ex0742NE,286.321,13102007,7:42:04,40.969,-71.721,452.40,-9.00,1009.87,1006.20,17.47,17.29,32.095,1.582,102.042,30.910,1009.871,15.300,16.900,322.000,16.470,437.28,2,-9.00,9,-9.00,0.28,11.42,303.93,10.6,242.21
AOML_Explorer,Ex0742NE,286.323,13102007,7:44:37,40.979,-71.717,459.04,-9.00,1009.91,1006.60,17.52,17.39,31.956,1.602,101.764,30.902,1009.909,15.000,14.700,318.000,14.926,444.54,2,-9.00,9,-9.00,0.32,11.06,299.70,10.57,241.44
AOML_Explorer,Ex0742NE,286.324,13102007,7:47:10,40.989,-71.714,467.26,-9.00,1009.87,1006.60,17.62,17.45,31.882,1.584,101.584,30.897,1009.869,16.400,12.500,316.000,14.412,451.69,2,-9.00,9,-9.00,0.30,11.21,301.89,10.52,241.13
AOML_Explorer,Ex0742NE,286.326,13102007,7:49:43,40.997,-71.711,481.17,-9.00,1009.85,1006.40,17.72,17.46,31.862,1.579,101.307,30.895,1009.850,17.700,11.100,307.000,14.412,463.63,2,-9.00,9,-9.00,0.31,12.44,294.87,10.63,249.25
AOML_Explorer,Ex0742NE,286.328,13102007,7:52:16,41.003,-71.708,492.33,-9.00,1009.88,1006.80,17.77,17.46,31.858,1.607,101.688,30.893,1009.884,18.900,8.600,307.000,11.838,473.31,2,-9.00,9,-9.00,0.29,10.30,297.26,10.53,302.76
AOML_Explorer,Ex0742NE,286.330,13102007,7:54:49,41.009,-71.705,499.94,-9.00,1009.95,1006.30,17.80,17.46,31.849,1.473,101.454,30.886,1009.948,22.200,7.500,299.000,12.353,479.98,2,-9.00,9,-9.00,0.32,11.65,292.74,10.61,288.59
AOML_Explorer,Ex0742NE,286.332,13102007,7:57:22,41.013,-71.703,503.49,-9.00,1010.07,1006.60,17.81,17.47,31.853,1.128,101.746,30.882,1010.069,22.900,7.100,307.000,12.868,483.58,2,-9.00,9,-9.00,0.33,11.65,302.69,10.74,272.33
AOML_Explorer,Ex0742NE,286.333,13102007,7:59:55,41.017,-71.701,504.64,-9.00,1009.97,1006.80,17.83,17.50,31.835,0.903,101.558,30.875,1009.975,-9.000,-9.000,322.000,13.382,484.79,2,-9.00,9,-9.00,0.31,10.92,310.39,10.62,269.23
AOML_Explorer,Ex0742NE,287.015,14102007,0:21:40,41.297,-71.535,490.30,-9.00,1012.63,1010.00,17.64,17.36,32.094,1.578,101.193,31.385,1012.625,83.100,7.000,187.000,3.088,473.21,2,-9.00,9,-9.00,0.27,6.67,267.81,14.39,264.82
AOML_Explorer,Ex0742NE,287.017,14102007,0:24:13,41.297,-71.529,493.13,-9.00,1012.64,1010.00,17.66,17.36,32.111,1.549,102.142,31.389,1012.637,89.000,6.700,229.000,2.059,475.53,2,-9.00,9,-9.00,0.28,4.99,287.67,14.32,256.26
AOML_Explorer,Ex0742NE,287.019,14102007,0:26:46,41.297,-71.523,493.69,-9.00,1012.70,1010.00,17.72,17.33,32.112,1.600,102.043,31.390,1012.703,97.900,6.300,172.000,3.603,474.44,2,-9.00,9,-9.00,0.31,6.76,276.82,14.33,251.81
AOML_Explorer,Ex0742NE,287.020,14102007,0:29:19,41.295,-71.518,493.30,-9.00,1012.69,1009.90,17.75,17.29,32.115,1.605,102.040,31.391,1012.694,129.300,5.500,106.000,4.118,472.69,2,-9.00,9,-9.00,0.32,5.68,270.58,14.36,249.65
AOML_Explorer,Ex0742NE,287.022,14102007,0:31:52,41.292,-71.515,495.40,-9.00,1012.66,1009.90,17.75,17.29,32.109,1.619,102.157,31.390,1012.662,152.200,5.800,83.000,4.632,474.54,2,-9.00,9,-9.00,0.32,5.36,274.59,14.45,249.01
AOML_Explorer,Ex0742NE,287.024,14102007,0:34:25,41.288,-71.513,497.70,-9.00,1012.68,1009.70,17.72,17.29,32.108,1.616,102.106,31.385,1012.683,161.100,8.500,85.000,6.176,477.36,2,-9.00,9,-9.00,0.29,7.37,285.19,14.52,247.71
AOML_Explorer,Ex0742NE,287.026,14102007,0:36:58,41.281,-71.510,499.29,-9.00,1012.65,1009.90,17.71,17.32,32.099,1.596,102.615,31.388,1012.648,163.400,10.800,85.000,6.691,479.75,2,-9.00,9,-9.00,0.31,8.38,291.09,14.53,252.98
AOML_Explorer,Ex0742NE,287.027,14102007,0:39:31,41.273,-71.507,501.58,-9.00,1012.64,1010.00,17.71,17.35,32.099,1.609,101.832,31.384,1012.636,164.600,12.400,73.000,8.750,482.37,2,-9.00,9,-9.00,0.31,9.29,280.80,14.59,259.50
AOML_Explorer,Ex0742NE,287.029,14102007,0:42:04,41.264,-71.504,501.55,-9.00,1012.66,1010.20,17.73,17.35,32.109,1.613,101.909,31.383,1012.658,170.300,13.800,61.000,10.294,482.02,2,-9.00,9,-9.00,0.32,9.39,275.04,14.61,255.81